Weather History for VTSP - February, 2011

Change the Weather History Date:

Monday, February 28, 2011

  Actual Average Record
Temperature  
Mean Temperature 82 °F -  
Max Temperature 91 °F 92 °F 102 °F (1998)
Min Temperature 72 °F 76 °F 72 °F (2014)
Cooling Degree Days 16    
Growing Degree Days 32 (Base 50)    
Moisture  
Dew Point 71 °F    
Average Humidity 72    
Maximum Humidity 95    
Minimum Humidity 34    
Precipitation  
Precipitation 0.00 in 0.08 in - ()
Sea Level Pressure  
Sea Level Pressure 29.82 in    
Wind  
Wind Speed 3 mph ()    
Max Wind Speed 13 mph    
Max Gust Speed -    
Visibility 4.7 miles    
Events      
Averages and records for this station are not official NWS values.
T = Trace of Precipitation, MM = Missing Value Source: Averaged Metar Reports

Daily Weather History Graph

Daily Weather History Graph

Search for Another Location

Airport or City:

Trip Planner

Search our weather history database for the weather conditions in past years. The results will help you decide how hot, cold, wet, or windy it might be!

Date:

Astronomy

Feb. 28, 2011 Rise Set
Actual Time 6:40 AM ICT 6:38 PM ICT
Civil Twilight 6:19 AM ICT 6:59 PM ICT
Nautical Twilight 5:55 AM ICT 7:23 PM ICT
Astronomical Twilight 5:30 AM ICT 7:48 PM ICT
Moon 3:06 AM ICT (2/28) 3:04 PM ICT (2/28)
Length of Visible Light 12h 39m
Length of Day
11h 57m
Waning Crescent, 19% of the Moon is Illuminated
Feb 28
Waning Crescent
Mar 5
New
Mar 13
First Quarter
Mar 20
Full
Mar 26
Last Quarter

Hourly Weather History & Observations

Time (ICT) Temp. Heat Index Dew Point Humidity Pressure Visibility Wind Dir Wind Speed Gust Speed Precip Events Conditions
12:00 AM 75.2 °F - 73.4 °F 94% 29.89 in 4.3 mi Calm Calm - N/A   Mostly Cloudy
12:30 AM 75.2 °F - 73.4 °F 94% 29.89 in 4.3 mi Calm Calm - N/A   Mostly Cloudy
1:00 AM 77 °F - 72 °F 79% 29.84 in 5 mi Calm Calm - -   Mist
1:00 AM 75.2 °F - 73.4 °F 94% 29.86 in 4.3 mi Calm Calm - N/A   Mostly Cloudy
1:30 AM 75.2 °F - 73.4 °F 94% 29.86 in 4.3 mi Calm Calm - N/A   Mostly Cloudy
2:00 AM 75.2 °F - 73.4 °F 94% 29.86 in 4.3 mi Variable 1.2 mph - N/A   Mostly Cloudy
2:30 AM 75.2 °F - 71.6 °F 89% 29.83 in 4.3 mi Calm Calm - N/A   Mostly Cloudy
3:00 AM 73.4 °F - 71.6 °F 94% 29.83 in 4.3 mi Calm Calm - N/A   Mostly Cloudy
3:30 AM 73.4 °F - 71.6 °F 94% 29.83 in 4.3 mi Calm Calm - N/A   Mostly Cloudy
4:00 AM 73.4 °F - 71.6 °F 94% 29.83 in 4.3 mi WNW 3.5 mph - N/A   Mostly Cloudy
4:30 AM 73.4 °F - 71.6 °F 94% 29.83 in 4.3 mi Calm Calm - N/A   Mostly Cloudy
5:00 AM 73.4 °F - 71.6 °F 94% 29.83 in 4.3 mi Calm Calm - N/A   Mostly Cloudy
5:30 AM 73.4 °F - 71.6 °F 94% 29.83 in 4.3 mi Calm Calm - N/A   Mostly Cloudy
6:00 AM 73.4 °F - 71.6 °F 94% 29.83 in 4.3 mi Calm Calm - N/A   Mostly Cloudy
6:30 AM 73.4 °F - 71.6 °F 94% 29.83 in 4.3 mi Calm Calm - N/A   Mostly Cloudy
7:00 AM 73 °F - 72 °F 95% 29.81 in 5 mi Calm Calm - -   Mist
7:00 AM 73.4 °F - 71.6 °F 94% 29.86 in 4.3 mi Calm Calm - N/A   Mostly Cloudy
7:30 AM 75.2 °F - 71.6 °F 89% 29.86 in 5.0 mi Calm Calm - N/A   Mostly Cloudy
8:00 AM 77.0 °F - 73.4 °F 89% 29.86 in 5.6 mi Calm Calm - N/A   Mostly Cloudy
8:30 AM 78.8 °F - 75.2 °F 89% 29.89 in 4.3 mi ENE 3.5 mph - N/A   Mostly Cloudy
9:00 AM 82.4 °F 88.2 °F 73.4 °F 74% 29.86 in 4.3 mi East 4.6 mph - N/A   Mostly Cloudy
9:30 AM 84.2 °F 88.4 °F 69.8 °F 62% 29.86 in 5.0 mi East 4.6 mph - N/A   Mostly Cloudy
10:00 AM 86.0 °F 89.4 °F 68.0 °F 55% 29.89 in 5.0 mi East 6.9 mph - N/A   Mostly Cloudy
10:30 AM 87.8 °F 90.4 °F 66.2 °F 49% 29.86 in 5.0 mi East 6.9 mph - N/A   Mostly Cloudy
11:00 AM 89.6 °F 90.1 °F 62.6 °F 40% 29.86 in 5.0 mi Variable 8.1 mph - N/A   Mostly Cloudy
11:30 AM 89.6 °F 92.2 °F 66.2 °F 46% 29.86 in 5.0 mi East 8.1 mph - N/A   Mostly Cloudy
12:00 PM 89.6 °F 91.1 °F 64.4 °F 43% 29.83 in 5.0 mi East 8.1 mph - N/A   Mostly Cloudy
12:30 PM 91.4 °F 93.2 °F 64.4 °F 41% 29.83 in 5.0 mi East 6.9 mph - N/A   Mostly Cloudy
1:00 PM 90 °F - 65 °F 34% 29.81 in 5 mi Calm Calm - -   Haze
1:00 PM 89.6 °F 96.2 °F 71.6 °F 55% 29.80 in 5.0 mi Variable 4.6 mph - N/A   Mostly Cloudy
1:30 PM 89.6 °F 96.2 °F 71.6 °F 55% 29.80 in 5.0 mi WNW 5.8 mph - N/A   Mostly Cloudy
2:00 PM 89.6 °F 96.2 °F 71.6 °F 55% 29.77 in 5.0 mi Variable 4.6 mph - N/A   Mostly Cloudy
2:30 PM 87.8 °F 92.6 °F 69.8 °F 55% 29.77 in 5.0 mi West 12.7 mph - N/A   Mostly Cloudy
3:00 PM 87.8 °F 91.4 °F 68.0 °F 52% 29.77 in 5.0 mi West 10.4 mph - N/A   Mostly Cloudy
3:30 PM 87.8 °F 91.4 °F 68.0 °F 52% 29.77 in 5.0 mi West 9.2 mph - N/A   Mostly Cloudy
4:00 PM 87.8 °F 92.6 °F 69.8 °F 55% 29.74 in 5.0 mi West 10.4 mph - N/A   Mostly Cloudy
4:30 PM 87.8 °F 92.6 °F 69.8 °F 55% 29.74 in 5.0 mi West 10.4 mph - N/A   Mostly Cloudy
5:00 PM 86.0 °F 90.4 °F 69.8 °F 58% 29.74 in 5.0 mi West 10.4 mph - N/A   Mostly Cloudy
5:30 PM 86.0 °F 90.4 °F 69.8 °F 58% 29.74 in 5.0 mi West 11.5 mph - N/A   Mostly Cloudy
6:00 PM 86.0 °F 91.8 °F 71.6 °F 62% 29.77 in 5.0 mi West 9.2 mph - N/A   Mostly Cloudy
6:30 PM 84.2 °F 89.6 °F 71.6 °F 66% 29.77 in 4.3 mi West 11.5 mph - N/A   Mostly Cloudy
7:00 PM 85 °F - 73 °F 60% 29.75 in 4 mi West 3.5 mph - -   Mist
7:00 PM 84.2 °F 90.9 °F 73.4 °F 70% 29.77 in 4.3 mi West 10.4 mph - N/A   Mostly Cloudy
7:30 PM 84.2 °F 90.9 °F 73.4 °F 70% 29.80 in 4.3 mi WNW 8.1 mph - N/A   Mostly Cloudy
8:00 PM 84.2 °F 90.9 °F 73.4 °F 70% 29.80 in 4.3 mi WNW 9.2 mph - N/A   Mostly Cloudy
8:30 PM 84.2 °F 90.9 °F 73.4 °F 70% 29.80 in 4.3 mi West 8.1 mph - N/A   Mostly Cloudy
9:00 PM 82.4 °F 88.2 °F 73.4 °F 74% 29.83 in 4.3 mi WNW 5.8 mph - N/A   Mostly Cloudy
9:30 PM 82.4 °F 89.5 °F 75.2 °F 79% 29.83 in 5.0 mi WNW 6.9 mph - N/A   Mostly Cloudy
10:00 PM 82.4 °F 88.2 °F 73.4 °F 74% 29.83 in 5.0 mi WNW 6.9 mph - N/A   Mostly Cloudy
10:30 PM 82.4 °F 88.2 °F 73.4 °F 74% 29.83 in 5.0 mi Calm Calm - N/A   Mostly Cloudy
11:00 PM 82.4 °F 88.2 °F 73.4 °F 74% 29.83 in 5.0 mi Calm Calm - N/A   Mostly Cloudy
11:30 PM 78.8 °F - 73.4 °F 83% 29.83 in 5.0 mi Calm Calm - N/A   Mostly Cloudy